Flag for Lebanon Weather past 2 weeks in Beirut, Lebanon

Now
59 °F

Passing clouds.


Feels Like: 58 °F
Forecast: 56 / 60 °F
Wind: 6 mph from South

Location: Beirut Airport

Current Time: Dec 22, 2014 at 3:04:26 AM

Latest Report: Dec 22, 2014 at 1:00 AM


Visibility: 5 mi

Pressure: 30.15 "Hg

Humidity: 72%

Dew point: 50 °F

Location of BeirutLocation

Historic Weather in Beirut — Graph

°F

Beirut temperature yesterday

Maximum temperature yesterday: 66 °F (at 1:00 PM)
Minimum temperature yesterday: 55 °F (at 2:00 AM)
Average temperature yesterday: 60 °F

Past Weeks' High & Low Weather Summary

 TemperatureHumidityPressure
High81 °F (Dec 8, 10:00 PM)88% (Dec 12, 8:00 PM)30.30 "Hg (Dec 12, 8:00 PM)
Low55 °F (Dec 21, 2:00 AM)24% (Dec 8, 11:00 PM)29.80 "Hg (Dec 9, 1:00 AM)
Average64 °F61%30.10 "Hg
* Reported Dec 7 1:00 AM — Dec 22 1:00 AM, Beirut, Weather by CustomWeather, © 2014

Note: Actual official high and low records may vary slightly from our data, if they occured in-between our weather recording intervals... More about our weather records

Advertising

Beirut weather history for previous 24 hours

 ConditionsComfort  
Time TempWeatherWind HumidityBarometerVisibility
1:00 AM
Dec 22
59 °FPassing clouds.6 mph72%30.15 "Hg5 mi
12:00 AM61 °FPassing clouds.7 mph68%30.15 "Hg5 mi
11:00 PM
Dec 21
61 °FLight rain. Passing clouds.7 mph68%30.15 "Hg5 mi
10:00 PM63 °FPassing clouds.7 mph59%30.15 "Hg5 mi
9:00 PM61 °FPassing clouds.3 mph63%30.15 "Hg5 mi
8:00 PM61 °FPassing clouds.5 mph63%30.15 "Hg5 mi
7:00 PM61 °FPassing clouds.5 mph63%30.15 "Hg5 mi
6:00 PM63 °FPassing clouds.3 mph64%30.15 "Hg5 mi
5:00 PM63 °FPassing clouds.6 mph64%30.15 "Hg5 mi
4:00 PM63 °FScattered clouds.6 mph64%30.15 "Hg5 mi
3:00 PM63 °FLight rain. Broken clouds.7 mph68%30.15 "Hg5 mi
2:00 PM64 °FPartly sunny.8 mph64%30.12 "HgN/A
1:00 PM66 °FPassing clouds.7 mph52%30.12 "HgN/A
12:00 PM64 °FPassing clouds.8 mph56%30.15 "HgN/A
11:00 AM64 °FPassing clouds.6 mph52%30.15 "HgN/A
10:00 AM64 °FPassing clouds.2 mph52%30.18 "HgN/A
9:00 AM61 °FPassing clouds.3 mph59%30.18 "HgN/A
8:00 AM57 °FPassing clouds.6 mph63%30.15 "HgN/A
7:00 AM55 °FPassing clouds.6 mph67%30.15 "HgN/A
6:00 AM55 °FPassing clouds.6 mph67%30.15 "HgN/A
5:00 AM55 °FPassing clouds.6 mph67%30.12 "Hg4 mi
4:00 AM55 °FPassing clouds.6 mph67%30.12 "Hg4 mi
3:00 AM55 °FPassing clouds.6 mph72%30.12 "Hg4 mi
Weather by CustomWeather, © 2014

See weather overviewHow to use our weather pages